Dewpoint
45 46 46 46 47 46 46 46 45 46 46 46 45 44 44 45 44 44 43 43 44 44 45 44 44 44 42 41 40 40 40 40 40 40 40 40 40 41 42 42 43 44 47 49 52 54 56 59 60 61 61 61 61 61 61 61 61 61 61 60 59 59 59 58 56 56 56 57 59 61 62 62 61 61 60 60 60 60 60 61 61 61 60 60 59
45 45 45 45 45 45 45 45 45 45 45 46 46 45 44 44 44 43 42 42 43 43 43 44 44 43 41 40 39 39 39 39 39 39 39 39 40 41 42 42 43 44 45 47 49 51 53 55 58 60 61 61 61 61 61 61 61 60 61 60 59 59 59 58 57 56 55 56 58 60 61 62 60 61 60 59 59 59 60 60 60 61 60 60 59
45 45 44 44 44 45 45 45 45 44 44 45 46 46 45 44 44 43 43 42 43 43 42 42 43 42 40 39 39 39 39 39 39 39 39 39 40 40 41 42 43 44 45 46 47 50 52 53 56 59 60 60 60 60 61 61 61 61 60 61 60 60 60 59 58 56 55 55 57 58 60 61 60 60 60 59 59 60 60 60 60 60 60 60 59
44 44 44 43 44 44 44 44 44 44 44 44 44 45 46 45 45 43 43 42 42 42 43 42 41 41 40 39 39 38 38 39 39 39 39 39 39 40 41 42 43 44 45 46 47 50 52 53 55 58 60 59 59 60 60 60 60 60 60 60 60 60 60 59 59 57 56 55 57 57 59 60 60 60 60 59 59 59 59 59 59 59 59 59 59
44 43 43 42 42 42 42 42 42 42 42 42 42 43 44 45 46 44 43 42 42 41 42 42 40 39 39 39 39 38 38 39 39 38 39 39 39 40 41 42 43 44 45 47 50 51 53 54 56 57 59 59 59 59 60 60 60 60 59 60 59 60 60 59 59 59 57 56 57 58 58 59 60 59 59 59 59 59 59 59 58 58 59 59 59
43 43 43 42 42 42 42 42 42 42 42 41 40 41 41 42 44 45 44 42 42 41 41 41 41 39 39 39 39 38 38 39 39 38 38 39 39 40 41 43 44 45 47 48 50 51 51 50 51 54 57 59 59 59 59 59 60 59 59 59 59 59 59 59 59 58 58 58 57 56 57 58 59 59 59 58 58 58 58 59 58 58 58 57 57
43 43 43 43 42 42 42 42 42 42 42 42 41 40 40 41 41 43 44 42 41 40 40 40 41 40 39 39 39 38 38 39 39 38 38 39 39 40 41 42 44 45 46 47 47 47 48 49 48 50 51 51 53 56 59 59 59 59 59 59 59 59 59 58 59 59 58 58 58 58 57 58 59 58 58 58 58 57 57 56 55 58 57 57 56
41 42 42 42 42 42 42 42 42 43 43 42 42 41 40 40 40 41 42 41 40 40 40 39 39 39 39 39 39 39 38 38 39 38 38 39 39 39 40 41 43 43 44 44 46 46 47 47 48 49 50 50 50 49 47 48 55 59 59 59 59 59 59 59 59 59 58 57 57 57 57 57 58 58 58 57 57 56 57 55 54 54 55 56 56
38 38 38 38 39 39 40 40 40 40 42 42 41 41 40 40 40 40 41 41 42 40 39 39 39 38 38 38 38 38 38 39 39 39 38 38 39 39 39 41 41 42 43 43 43 43 44 45 46 47 49 49 47 47 46 45 45 48 55 59 59 58 58 58 58 58 58 57 57 57 57 57 57 57 54 55 55 55 56 56 54 55 55 55 55
37 37 37 37 37 36 37 38 37 37 38 40 41 41 40 40 40 39 39 40 40 41 39 39 39 38 38 38 38 38 38 39 41 40 40 39 39 39 39 40 39 40 41 41 41 41 42 42 45 48 46 46 46 44 42 42 43 44 45 48 56 58 58 58 58 58 57 57 57 56 55 55 56 56 53 54 55 55 54 55 54 54 54 54 53
37 37 36 36 35 35 35 35 35 35 35 36 38 40 40 39 39 39 39 39 39 40 39 39 39 39 38 38 37 38 38 39 38 38 38 38 39 39 39 39 39 38 39 39 40 40 40 41 42 44 44 45 44 43 41 41 40 41 41 43 46 51 57 57 57 58 57 57 57 56 55 55 55 56 54 53 53 53 53 53 54 52 52 51 50
36 36 36 36 35 34 34 34 34 34 34 34 35 36 38 39 38 37 38 39 39 39 39 39 39 38 38 38 37 38 38 39 37 38 38 38 39 39 39 39 39 38 38 38 39 39 39 40 41 42 42 42 43 42 41 40 40 40 40 41 43 44 45 54 57 57 57 57 56 56 56 55 55 56 55 52 53 52 53 53 53 51 51 51 51
36 36 37 36 35 35 34 33 33 33 33 34 34 34 34 35 36 36 35 37 37 37 38 37 38 38 38 37 37 37 37 38 37 37 37 37 38 38 38 38 39 38 38 38 38 38 39 40 40 41 41 44 44 41 39 39 40 40 41 43 46 46 42 42 45 56 58 57 57 56 56 56 55 55 56 54 52 51 51 52 52 52 52 51 51
36 36 36 36 35 35 34 33 33 33 33 33 33 33 33 34 35 35 35 35 35 35 35 35 35 35 36 36 36 36 36 38 37 37 37 37 37 38 37 37 38 38 38 38 38 38 38 39 40 40 39 39 40 39 38 38 38 39 42 46 49 51 49 44 43 44 49 57 58 57 57 57 56 56 56 55 52 50 50 51 52 52 51 51 51
35 36 36 36 35 35 34 34 33 33 33 32 32 32 33 33 34 35 34 34 34 34 33 33 33 34 34 34 35 35 36 37 36 37 37 37 37 38 37 37 37 37 38 38 38 38 38 39 39 39 38 38 39 38 38 37 38 39 43 46 48 52 55 55 53 53 53 55 58 58 58 57 58 57 57 56 53 52 50 50 51 52 52 51 51
35 35 35 35 35 35 34 33 33 33 33 32 32 32 32 32 33 33 34 33 34 34 34 32 32 31 32 33 34 33 34 36 36 36 37 37 38 38 37 36 36 36 37 37 38 38 38 38 38 38 37 37 38 37 37 38 38 39 42 44 46 49 53 54 50 50 55 57 58 59 59 58 53 56 55 57 55 53 52 52 51 51 51 51 50
35 36 35 35 35 34 34 34 33 32 32 32 32 32 32 32 32 35 31 31 32 33 35 33 32 31 32 32 33 33 33 35 36 36 36 37 38 37 37 36 36 36 36 37 37 37 37 38 38 37 37 36 37 36 36 38 39 39 40 42 44 47 50 52 44 43 43 43 43 43 42 45 47 48 48 49 54 53 52 51 49 50 51 50 50
34 35 34 35 35 34 34 34 33 33 32 32 31 31 32 31 32 34 31 31 31 31 34 34 32 32 32 32 34 33 33 35 36 36 36 37 38 37 37 36 36 36 36 36 36 36 37 40 41 37 36 36 36 35 36 37 38 38 39 40 42 44 48 51 50 47 41 42 43 43 44 44 44 45 46 47 47 49 52 49 48 48 49 50 49
35 34 35 35 34 34 34 34 33 32 32 32 32 32 31 32 32 31 32 31 32 31 35 33 32 31 31 32 36 33 33 35 36 36 36 36 37 37 37 36 36 35 35 35 36 36 36 37 39 38 37 36 35 35 35 37 37 38 39 39 40 41 44 49 50 50 49 49 49 49 48 47 50 51 50 45 46 49 52 51 51 50 49 48 49
35 35 35 35 35 35 35 35 34 32 32 32 32 33 34 31 32 31 31 31 31 31 31 32 31 30 31 31 32 33 34 35 36 36 36 36 37 38 37 36 36 36 35 35 35 35 35 36 37 36 35 35 35 35 35 36 37 38 39 38 37 39 42 44 46 49 51 50 49 48 48 48 47 47 48 49 49 53 53 54 52 49 48 48 49
35 34 34 35 35 34 34 33 33 33 32 32 33 33 32 31 31 31 31 31 30 30 30 31 31 30 30 31 32 32 34 35 36 36 37 37 37 37 36 37 36 36 35 35 35 35 35 35 35 36 35 35 35 35 35 35 36 38 38 37 38 39 39 40 43 46 50 48 47 47 47 47 47 46 46 48 49 51 51 48 52 50 50 48 47
33 33 34 34 34 34 34 34 35 35 35 33 32 32 32 32 32 31 30 30 30 30 30 31 30 30 30 31 32 32 34 37 36 37 37 37 37 37 36 36 37 37 35 34 34 35 35 35 35 36 35 35 35 35 35 35 36 38 37 35 36 37 43 45 46 49 48 47 47 47 46 46 46 45 45 45 44 47 48 48 48 52 52 50 47
34 34 34 35 35 34 34 35 34 35 34 33 32 31 31 32 31 32 31 30 30 30 30 30 30 30 30 30 31 32 32 34 36 36 37 37 37 36 36 36 36 37 35 34 34 35 35 35 35 36 35 35 35 35 35 35 36 36 35 35 36 37 41 44 45 47 46 46 46 45 45 45 44 44 44 44 44 44 45 45 46 47 47 46 47
33 33 34 33 34 35 35 35 34 33 34 33 33 31 31 31 31 32 30 30 30 30 31 31 30 30 30 30 31 31 32 33 35 36 37 36 36 36 36 36 36 36 36 34 35 34 34 34 35 34 35 34 34 35 35 35 35 35 35 35 36 38 41 41 41 43 42 42 42 42 42 43 44 44 43 44 44 45 45 46 46 47 47 46 46
32 32 32 32 33 33 34 33 33 33 33 33 32 32 31 31 30 30 31 30 30 30 30 31 30 31 30 30 30 30 32 33 34 35 36 37 36 36 36 36 36 36 35 35 35 35 35 34 34 34 34 34 34 35 35 35 34 35 35 35 38 38 39 40 40 40 40 40 40 41 41 42 42 43 44 44 45 45 44 45 45 45 45 45 44
32 31 32 31 32 34 34 33 33 33 34 33 33 32 32 32 31 30 29 29 28 30 31 31 31 31 30 30 30 30 31 32 33 33 36 37 36 36 36 36 37 36 36 35 35 35 34 34 34 34 35 35 35 35 35 35 35 35 35 36 36 37 37 38 38 39 38 39 39 39 40 41 42 43 43 44 43 43 44 44 45 44 45 45 44
33 31 31 31 31 32 34 33 33 33 32 32 33 35 32 30 30 31 29 27 28 29 30 31 31 31 31 30 30 30 30 31 32 33 34 35 35 36 36 36 37 36 36 35 35 34 34 35 34 34 34 34 34 34 34 34 35 35 35 36 36 37 37 37 37 37 38 38 39 40 40 41 42 42 42 42 42 42 43 43 44 43 44 44 43
31 30 30 31 32 31 33 34 34 32 32 31 32 31 31 31 29 29 29 29 28 28 29 30 30 30 30 30 30 30 30 31 32 33 33 35 35 35 35 36 35 35 34 34 34 34 34 34 34 34 34 33 33 34 34 34 34 34 35 35 35 36 36 36 36 37 37 38 38 39 39 40 40 40 41 41 41 41 42 42 42 42 42 42 41
32 31 30 31 31 32 32 33 32 31 30 31 30 30 30 30 30 29 28 28 28 29 29 29 30 29 29 30 30 30 30 31 32 34 34 34 34 35 35 35 35 35 36 34 35 33 33 32 33 33 33 33 33 33 34 34 34 34 34 34 35 35 35 35 34 35 36 37 36 36 37 38 39 39 40 40 40 40 41 41 41 41 41 42 40
31 30 30 31 30 30 30 30 32 32 30 30 30 30 33 35 32 29 28 35 33 32 33 30 30 30 31 31 29 29 29 32 34 34 34 34 34 34 34 34 34 35 35 34 34 32 32 31 32 32 33 33 33 32 33 33 33 33 34 33 34 34 34 34 34 34 34 35 36 36 36 36 37 38 38 38 39 40 40 39 40 40 39 39 38
30 29 30 30 30 30 30 29 29 29 29 30 30 30 30 30 33 34 35 35 33 32 32 34 34 34 32 30 32 33 33 33 34 34 34 34 34 34 34 34 34 34 34 33 32 31 31 31 31 31 32 33 32 32 33 33 32 32 33 33 34 33 33 33 34 34 33 33 34 35 35 36 35 36 36 36 37 39 39 39 40 40 39 38 38
30 29 30 30 31 30 29 29 29 29 28 29 27 28 27 27 29 32 33 35 35 35 35 34 32 31 32 33 34 31 32 33 34 34 34 34 34 34 34 34 34 34 34 34 33 33 32 31 31 31 31 31 32 32 33 33 33 33 33 32 32 33 33 33 34 34 34 34 33 33 34 34 35 34 35 34 34 36 37 36 37 37 37 38 38
30 29 29 29 30 30 30 29 29 29 29 27 28 27 26 26 25 25 29 32 34 34 34 32 31 30 32 34 34 34 33 34 34 34 34 34 34 34 34 34 34 34 33 32 32 32 33 33 32 32 31 31 31 32 33 33 33 33 33 33 33 33 34 34 33 34 33 33 33 33 33 33 33 34 34 34 34 34 34 35 36 37 37 36 35
30 30 29 29 30 30 30 29 28 28 28 27 27 27 26 27 26 25 25 26 28 30 32 33 34 33 34 34 34 34 34 34 34 34 34 34 34 34 33 33 34 34 33 32 32 32 33 33 33 33 33 32 31 31 32 32 33 33 33 34 34 34 34 34 34 33 33 33 33 33 33 33 33 33 33 34 34 34 34 34 35 34 35 35 35
29 28 28 30 31 31 31 28 28 28 28 28 27 27 28 27 26 26 25 25 26 26 27 28 31 33 30 33 33 34 34 34 34 34 34 34 34 34 33 32 31 32 32 33 32 32 32 32 32 33 33 33 32 32 32 32 32 32 33 33 33 34 34 33 33 33 33 33 33 33 33 33 33 33 33 33 33 33 33 33 34 35 35 34 35
30 28 30 30 28 29 30 30 29 29 29 28 28 27 27 27 27 26 26 26 25 25 26 27 27 30 33 33 34 33 33 33 33 33 33 33 33 33 31 30 30 31 31 32 32 32 32 32 32 32 33 33 33 33 33 33 33 33 33 33 32 33 33 33 32 32 32 33 32 32 32 32 33 33 33 33 34 33 33 33 33 33 34 34 33
30 28 27 28 28 29 28 29 29 30 28 27 27 27 27 27 27 27 26 25 25 26 25 26 28 28 30 28 33 33 33 33 33 33 33 33 32 31 29 28 29 29 30 30 31 31 31 31 32 32 32 32 33 33 33 33 33 32 32 32 33 32 32 32 32 31 31 31 31 32 32 31 31 32 32 32 33 33 33 33 33 33 33 33 33
29 28 26 28 28 29 29 29 30 28 27 27 27 26 27 27 26 26 25 25 25 25 26 26 31 26 25 27 35 31 29 31 32 31 31 31 29 29 29 28 29 28 29 30 30 30 31 31 31 31 31 31 32 32 32 32 32 31 31 30 30 30 31 31 31 31 30 30 30 30 31 31 31 31 31 31 32 33 33 33 33 33 33 33 33
29 29 28 27 27 29 28 28 27 27 27 27 28 27 25 25 26 26 26 25 25 25 25 26 27 27 27 26 26 30 29 27 26 25 27 28 28 27 28 28 28 29 29 29 30 30 31 31 31 31 30 30 31 31 31 31 31 31 30 30 29 29 28 28 29 29 30 30 30 30 30 30 30 30 31 31 31 31 32 32 32 32 32 32 32
28 28 27 27 26 27 26 27 27 27 26 27 27 26 26 26 26 26 25 25 26 25 24 26 27 28 28 26 26 27 27 25 24 25 25 26 28 29 27 28 28 28 28 29 30 30 30 31 31 30 30 30 30 30 30 30 30 31 30 30 29 28 28 28 28 28 29 29 29 29 29 30 30 30 30 30 30 31 31 31 31 32 32 32 32
26 26 27 26 24 25 26 26 27 27 27 27 26 26 26 25 25 25 25 25 24 25 26 26 28 29 27 27 30 29 27 26 27 25 26 26 27 28 28 27 27 29 29 28 28 29 29 30 30 30 30 30 30 30 30 30 29 29 30 29 29 28 28 28 28 28 28 28 28 28 29 29 30 30 29 30 31 30 31 31 31 32 32 32 32
27 26 25 26 25 25 25 26 26 27 27 26 26 26 26 26 26 25 25 25 25 26 25 26 27 28 29 32 32 31 28 26 26 26 27 27 27 28 27 28 27 27 27 28 27 28 28 29 30 31 31 31 31 31 31 30 29 28 28 28 28 28 28 28 28 28 27 27 26 26 27 29 29 29 30 30 29 29 29 30 30 31 31 31 31
27 26 25 27 25 23 24 24 25 25 25 26 27 27 26 26 26 25 24 25 25 26 25 25 28 27 27 28 28 30 28 26 27 27 27 26 27 26 27 27 28 27 28 28 27 26 25 27 29 31 31 31 30 30 30 30 30 29 29 27 26 27 27 28 28 28 28 27 27 26 25 26 26 27 28 29 29 28 29 29 29 29 30 30 31
27 27 27 27 26 25 22 24 25 25 25 26 26 25 26 26 26 26 25 25 24 26 26 26 27 27 28 26 26 27 27 26 26 27 27 26 27 26 27 28 28 28 28 28 27 26 24 25 27 29 30 30 31 30 29 29 30 29 29 28 27 27 26 26 26 26 27 26 27 26 25 25 25 25 26 27 27 27 27 28 28 28 29 28 30
27 28 27 26 24 20 20 24 25 24 25 26 25 25 25 26 26 25 25 25 25 25 26 25 26 25 26 27 26 26 26 26 26 26 26 26 26 27 26 27 26 27 27 28 26 27 26 24 24 25 26 28 29 28 28 27 26 26 25 25 24 24 24 24 24 24 24 23 25 25 25 25 25 25 25 25 25 24 25 25 26 26 26 26 27
27 27 25 24 22 22 24 24 25 25 24 24 23 23 24 24 25 25 25 25 25 25 26 25 26 26 26 27 26 25 26 26 27 27 26 25 26 27 26 25 26 26 25 25 25 25 25 25 24 23 23 23 27 27 27 25 25 25 25 25 23 21 22 23 23 23 25 25 24 22 22 24 24 25 26 24 23 23 22 23 24 25 25 25 25
28 27 25 23 22 23 24 24 24 23 23 23 24 24 23 24 25 25 25 26 25 25 26 26 25 26 27 27 27 27 26 26 27 26 27 27 26 27 27 26 26 25 26 26 24 23 22 24 24 23 23 22 23 26 27 24 24 23 24 23 23 23 22 22 22 22 23 24 23 21 23 22 23 23 25 25 24 23 22 23 24 24 25 25 24
27 26 25 25 24 23 24 24 24 25 24 24 25 24 25 25 25 25 25 25 25 25 26 26 26 27 27 27 27 27 26 27 26 27 26 26 26 26 26 25 24 25 24 26 26 24 22 21 23 22 24 23 24 26 26 25 23 23 22 22 22 20 20 19 19 21 22 24 23 22 22 23 22 23 23 23 21 22 21 22 24 25 24 25 25
26 26 25 25 24 23 24 23 24 23 23 24 25 25 25 25 25 25 25 25 25 25 26 27 27 27 26 27 27 26 26 26 26 26 26 26 26 27 25 24 25 25 23 25 25 23 24 22 22 23 22 23 22 23 25 24 23 22 22 20 20 18 18 18 17 19 20 23 23 23 23 22 22 21 23 23 23 21 20 21 22 23 23 23 23
25 26 25 24 24 24 24 24 23 22 23 24 24 24 25 25 25 25 25 25 25 24 24 26 27 28 28 27 27 27 27 27 27 27 27 26 26 26 25 25 24 24 22 22 23 23 23 23 22 22 22 23 23 23 22 22 21 21 20 20 18 17 17 17 17 18 20 19 21 20 20 20 19 20 20 21 21 21 21 22 23 24 23 22 22
25 26 26 24 24 24 25 24 23 22 22 23 24 24 24 24 24 25 25 25 24 24 25 26 27 27 27 28 27 27 27 28 28 27 27 27 27 26 25 25 25 23 23 22 22 22 22 21 22 22 22 23 23 22 21 20 19 18 19 17 17 17 17 17 17 17 18 19 19 20 21 21 20 21 22 22 22 20 22 22 23 22 22 22 22